TimeEST,TemperatureF,Dew PointF,Humidity,Sea Level PressureIn,VisibilityMPH,Wind Direction,Wind SpeedMPH,Gust SpeedMPH,PrecipitationIn,Events,Conditions,WindDirDegrees,DateUTC
12:54 AM,33.1,32.0,96,29.98,4.0,East,3.5,-,N/A,,Overcast,80,2013-12-02 05:54:00
1:54 AM,33.1,32.0,96,29.98,4.0,East,4.6,-,0.00,,Overcast,80,2013-12-02 06:54:00
2:54 AM,33.1,32.0,96,29.96,4.0,East,4.6,-,N/A,,Overcast,100,2013-12-02 07:54:00
3:26 AM,33.8,32.0,93,29.94,4.0,East,4.6,-,N/A,,Overcast,90,2013-12-02 08:26:00
3:54 AM,33.1,32.0,96,29.95,3.0,East,4.6,-,0.00,Snow,Light Snow,90,2013-12-02 08:54:00
4:54 AM,33.1,32.0,96,29.94,3.0,East,3.5,-,0.00,,Overcast,90,2013-12-02 09:54:00
5:54 AM,33.1,32.0,96,29.94,4.0,Calm,Calm,-,N/A,,Overcast,0,2013-12-02 10:54:00
6:54 AM,33.1,32.0,96,29.93,6.0,ENE,3.5,-,N/A,,Overcast,60,2013-12-02 11:54:00
7:54 AM,34.0,32.0,92,29.93,3.0,Calm,Calm,-,N/A,,Overcast,0,2013-12-02 12:54:00
8:54 AM,34.0,33.1,96,29.94,3.0,East,3.5,-,N/A,,Overcast,80,2013-12-02 13:54:00
9:54 AM,35.1,33.1,92,29.94,3.0,East,3.5,-,N/A,,Overcast,80,2013-12-02 14:54:00
10:54 AM,36.0,34.0,93,29.93,4.0,East,3.5,-,N/A,,Overcast,90,2013-12-02 15:54:00
11:54 AM,37.0,34.0,89,29.91,6.0,East,4.6,-,N/A,,Overcast,90,2013-12-02 16:54:00
12:54 PM,39.0,34.0,82,29.89,7.0,East,3.5,-,N/A,,Overcast,80,2013-12-02 17:54:00
1:54 PM,39.0,34.0,82,29.88,8.0,Calm,Calm,-,N/A,,Overcast,0,2013-12-02 18:54:00
2:54 PM,39.0,34.0,82,29.87,8.0,Calm,Calm,-,N/A,,Overcast,0,2013-12-02 19:54:00
3:54 PM,37.0,33.1,86,29.88,8.0,East,4.6,-,N/A,,Overcast,90,2013-12-02 20:54:00
4:54 PM,37.0,33.1,86,29.88,9.0,Calm,Calm,-,N/A,,Overcast,0,2013-12-02 21:54:00
5:54 PM,37.0,33.1,86,29.89,9.0,Calm,Calm,-,N/A,,Overcast,0,2013-12-02 22:54:00
6:54 PM,36.0,32.0,86,29.91,8.0,Calm,Calm,-,N/A,,Overcast,0,2013-12-02 23:54:00
7:54 PM,34.0,33.1,96,29.90,7.0,Calm,Calm,-,N/A,,Overcast,0,2013-12-03 00:54:00
8:54 PM,34.0,32.0,92,29.90,6.0,Calm,Calm,-,N/A,,Overcast,0,2013-12-03 01:54:00
9:54 PM,34.0,33.1,96,29.89,6.0,Calm,Calm,-,N/A,,Overcast,0,2013-12-03 02:54:00
10:54 PM,35.1,32.0,89,29.90,6.0,Calm,Calm,-,N/A,,Overcast,0,2013-12-03 03:54:00
11:54 PM,34.0,32.0,92,29.90,5.0,Calm,Calm,-,N/A,,Overcast,0,2013-12-03 04:54:00